Location: Wolf Lake
(46.8518°N, 80.6381°W)
Time: 10:46:09
(UTC-04:00)

ISS - Pass Details

Date: 15 March 2026
Orbit: 416 x 425 km, 51.6° (Epoch: 19 April)

Event Time Altitude Azimuth Distance (km) Brightness Sun altitude
Rises 20:54:38 0° 257° (WSW) 2,383 1.2 -15.4°
Reaches altitude 10° 20:56:46 10° 262° (W) 1,517 0.2 -15.8°
Maximum altitude 21:00:07 55° 341° (NNW) 517 -3.2 -16.3°
Enters shadow 21:01:45 27° 49° (NE) 865 -2.5 -16.6°
